Year,Month,Day,Hour,Minute,Value (Times are PST for temperature in C)
2020,04,24,00,00,7.30
2020,04,24,00,01,7.30
2020,04,24,00,02,7.30
2020,04,24,00,03,7.30
2020,04,24,00,04,7.20
2020,04,24,00,05,7.20
2020,04,24,00,06,7.20
2020,04,24,00,07,7.20
2020,04,24,00,08,7.20
2020,04,24,00,09,7.20
2020,04,24,00,10,7.10
2020,04,24,00,11,7.10
2020,04,24,00,12,7.10
2020,04,24,00,13,7.10
2020,04,24,00,14,7.00
2020,04,24,00,15,7.00
2020,04,24,00,16,7.00
2020,04,24,00,17,6.90
2020,04,24,00,18,6.90
2020,04,24,00,19,6.80
2020,04,24,00,20,6.80
2020,04,24,00,21,6.80
2020,04,24,00,22,6.80
2020,04,24,00,23,6.80
2020,04,24,00,24,6.80
2020,04,24,00,25,6.90
2020,04,24,00,26,6.90
2020,04,24,00,27,7.00
2020,04,24,00,28,7.00
2020,04,24,00,29,7.00
2020,04,24,00,30,7.00
2020,04,24,00,31,7.00
2020,04,24,00,32,7.00
2020,04,24,00,33,7.00
2020,04,24,00,34,7.00
2020,04,24,00,35,7.00
2020,04,24,00,36,7.00
2020,04,24,00,37,7.00
2020,04,24,00,38,7.00
2020,04,24,00,39,6.90
2020,04,24,00,40,7.00
2020,04,24,00,41,7.00
2020,04,24,00,42,7.00
2020,04,24,00,43,7.00
2020,04,24,00,44,7.10
2020,04,24,00,45,7.10
2020,04,24,00,46,7.10
2020,04,24,00,47,7.10
2020,04,24,00,48,7.00
2020,04,24,00,49,7.00
2020,04,24,00,50,6.90
2020,04,24,00,51,6.90
2020,04,24,00,52,6.90
2020,04,24,00,53,6.80
2020,04,24,00,54,6.80
2020,04,24,00,55,6.80
2020,04,24,00,56,6.70
2020,04,24,00,57,6.70
2020,04,24,00,58,6.70
2020,04,24,00,59,6.60
2020,04,24,01,00,6.60
2020,04,24,01,01,6.50
2020,04,24,01,02,6.50
2020,04,24,01,03,6.50
2020,04,24,01,04,6.40
2020,04,24,01,05,6.50
2020,04,24,01,06,6.40
2020,04,24,01,07,6.40
2020,04,24,01,08,6.40
2020,04,24,01,09,6.40
2020,04,24,01,10,6.30
2020,04,24,01,11,6.30
2020,04,24,01,12,6.30
2020,04,24,01,13,6.30
2020,04,24,01,14,6.30
2020,04,24,01,15,6.30
2020,04,24,01,16,6.30
2020,04,24,01,17,6.40
2020,04,24,01,18,6.40
2020,04,24,01,19,6.40
2020,04,24,01,20,6.50
2020,04,24,01,21,6.60
2020,04,24,01,22,6.60
2020,04,24,01,23,6.70
2020,04,24,01,24,6.80
2020,04,24,01,25,6.80
2020,04,24,01,26,6.90
2020,04,24,01,27,6.90
2020,04,24,01,28,6.90
2020,04,24,01,29,7.00
2020,04,24,01,30,7.00
2020,04,24,01,31,7.00
2020,04,24,01,32,7.00
2020,04,24,01,33,7.10
2020,04,24,01,34,7.10
2020,04,24,01,35,7.10
2020,04,24,01,36,7.10
2020,04,24,01,37,7.10
2020,04,24,01,38,7.10
2020,04,24,01,39,7.10
2020,04,24,01,40,7.10
2020,04,24,01,41,7.10
2020,04,24,01,42,7.10
2020,04,24,01,43,7.10
2020,04,24,01,44,7.10
2020,04,24,01,45,7.10
2020,04,24,01,46,7.10
2020,04,24,01,47,7.10
2020,04,24,01,48,7.10
2020,04,24,01,49,7.00
2020,04,24,01,50,7.00
2020,04,24,01,51,6.90
2020,04,24,01,52,6.80
2020,04,24,01,53,6.80
2020,04,24,01,54,6.70
2020,04,24,01,55,6.60
2020,04,24,01,56,6.60
2020,04,24,01,57,6.50
2020,04,24,01,58,6.50
2020,04,24,01,59,6.40
2020,04,24,02,00,6.40
2020,04,24,02,01,6.40
2020,04,24,02,02,6.40
2020,04,24,02,03,6.30
2020,04,24,02,04,6.30
2020,04,24,02,05,6.30
2020,04,24,02,06,6.20
2020,04,24,02,07,6.20
2020,04,24,02,08,6.10
2020,04,24,02,09,6.10
2020,04,24,02,10,6.00
2020,04,24,02,11,6.00
2020,04,24,02,12,6.00
2020,04,24,02,13,5.90
2020,04,24,02,14,5.90
2020,04,24,02,15,5.90
2020,04,24,02,16,5.90
2020,04,24,02,17,5.90
2020,04,24,02,18,5.90
2020,04,24,02,19,5.90
2020,04,24,02,20,5.90
2020,04,24,02,21,5.90
2020,04,24,02,22,5.90
2020,04,24,02,23,5.90
2020,04,24,02,24,5.90
2020,04,24,02,25,5.90
2020,04,24,02,26,5.90
2020,04,24,02,27,5.90
2020,04,24,02,28,5.90
2020,04,24,02,29,6.00
2020,04,24,02,30,6.00
2020,04,24,02,31,6.00
2020,04,24,02,32,6.00
2020,04,24,02,33,6.00
2020,04,24,02,34,5.90
2020,04,24,02,35,5.90
2020,04,24,02,36,5.90
2020,04,24,02,37,5.90
2020,04,24,02,38,5.90
2020,04,24,02,39,5.90
2020,04,24,02,40,5.90
2020,04,24,02,41,5.90
2020,04,24,02,42,5.90
2020,04,24,02,43,5.90
2020,04,24,02,44,5.80
2020,04,24,02,45,5.80
2020,04,24,02,46,5.80
2020,04,24,02,47,5.70
2020,04,24,02,48,5.70
2020,04,24,02,49,5.60
2020,04,24,02,50,5.60
2020,04,24,02,51,5.60
2020,04,24,02,52,5.60
2020,04,24,02,53,5.50
2020,04,24,02,54,5.50
2020,04,24,02,55,5.50
2020,04,24,02,56,5.50
2020,04,24,02,57,5.50
2020,04,24,02,58,5.40
2020,04,24,02,59,5.40
2020,04,24,03,00,5.40
2020,04,24,03,01,5.40
2020,04,24,03,02,5.30
2020,04,24,03,03,5.30
2020,04,24,03,04,5.30
2020,04,24,03,05,5.30
2020,04,24,03,06,5.30
2020,04,24,03,07,5.30
2020,04,24,03,08,5.30
2020,04,24,03,09,5.40
2020,04,24,03,10,5.50
2020,04,24,03,11,5.50
2020,04,24,03,12,5.60
2020,04,24,03,13,5.60
2020,04,24,03,14,5.60
2020,04,24,03,15,5.60
2020,04,24,03,16,5.60
2020,04,24,03,17,5.60
2020,04,24,03,18,5.60
2020,04,24,03,19,5.50
2020,04,24,03,20,5.50
2020,04,24,03,21,5.40
2020,04,24,03,22,5.40
2020,04,24,03,23,5.40
2020,04,24,03,24,5.30
2020,04,24,03,25,5.30
2020,04,24,03,26,5.30
2020,04,24,03,27,5.20
2020,04,24,03,28,5.20
2020,04,24,03,29,5.20
2020,04,24,03,30,5.20
2020,04,24,03,31,5.20
2020,04,24,03,32,5.20
2020,04,24,03,33,5.20
2020,04,24,03,34,5.20
2020,04,24,03,35,5.20
2020,04,24,03,36,5.20
2020,04,24,03,37,5.20
2020,04,24,03,38,5.20
2020,04,24,03,39,5.20
2020,04,24,03,40,5.20
2020,04,24,03,41,5.10
2020,04,24,03,42,5.10
2020,04,24,03,43,5.10
2020,04,24,03,44,5.10
2020,04,24,03,45,5.10
2020,04,24,03,46,5.10
2020,04,24,03,47,5.10
2020,04,24,03,48,5.20
2020,04,24,03,49,5.20
2020,04,24,03,50,5.20
2020,04,24,03,51,5.20
2020,04,24,03,52,5.20
2020,04,24,03,53,5.20
2020,04,24,03,54,5.20
2020,04,24,03,55,5.20
2020,04,24,03,56,5.20
2020,04,24,03,57,5.20
2020,04,24,03,58,5.20
2020,04,24,03,59,5.20
2020,04,24,04,00,5.10
2020,04,24,04,01,5.10
2020,04,24,04,02,5.10
2020,04,24,04,03,5.20
2020,04,24,04,04,5.20
2020,04,24,04,05,5.20
2020,04,24,04,06,5.20
2020,04,24,04,07,5.20
2020,04,24,04,08,5.20
2020,04,24,04,09,5.20
2020,04,24,04,10,5.20
2020,04,24,04,11,5.20
2020,04,24,04,12,5.20
2020,04,24,04,13,5.20
2020,04,24,04,14,5.30
2020,04,24,04,15,5.30
2020,04,24,04,16,5.40
2020,04,24,04,17,5.40
2020,04,24,04,18,5.50
2020,04,24,04,19,5.50
2020,04,24,04,20,5.60
2020,04,24,04,21,5.60
2020,04,24,04,22,5.60
2020,04,24,04,23,5.60
2020,04,24,04,24,5.60
2020,04,24,04,25,5.60
2020,04,24,04,26,5.60
2020,04,24,04,27,5.70
2020,04,24,04,28,5.70
2020,04,24,04,29,5.70
2020,04,24,04,30,5.70
2020,04,24,04,31,5.80
2020,04,24,04,32,5.80
2020,04,24,04,33,5.80
2020,04,24,04,34,5.80
2020,04,24,04,35,5.80
2020,04,24,04,36,5.80
2020,04,24,04,37,5.90
2020,04,24,04,38,5.90
2020,04,24,04,39,5.90
2020,04,24,04,40,5.90
2020,04,24,04,41,5.90
2020,04,24,04,42,5.90
2020,04,24,04,43,6.00
2020,04,24,04,44,6.00
2020,04,24,04,45,6.10
2020,04,24,04,46,6.10
2020,04,24,04,47,6.10
2020,04,24,04,48,6.10
2020,04,24,04,49,6.10
2020,04,24,04,50,6.10
2020,04,24,04,51,6.10
2020,04,24,04,52,6.10
2020,04,24,04,53,6.20
2020,04,24,04,54,6.20
2020,04,24,04,55,6.20
2020,04,24,04,56,6.20
2020,04,24,04,57,6.30
2020,04,24,04,58,6.30
2020,04,24,04,59,6.30
2020,04,24,05,00,6.30
2020,04,24,05,01,6.40
2020,04,24,05,02,6.40
2020,04,24,05,03,6.40
2020,04,24,05,04,6.40
2020,04,24,05,05,6.40
2020,04,24,05,06,6.40
2020,04,24,05,07,6.40
2020,04,24,05,08,6.40
2020,04,24,05,09,6.40
2020,04,24,05,10,6.40
2020,04,24,05,11,6.40
2020,04,24,05,12,6.40
2020,04,24,05,13,6.40
2020,04,24,05,14,6.40
2020,04,24,05,15,6.40
2020,04,24,05,16,6.40
2020,04,24,05,17,6.40
2020,04,24,05,18,6.40
2020,04,24,05,19,6.40
2020,04,24,05,20,6.40
2020,04,24,05,21,6.40
2020,04,24,05,22,6.40
2020,04,24,05,23,6.40
2020,04,24,05,24,6.40
2020,04,24,05,25,6.40
2020,04,24,05,26,6.40
2020,04,24,05,27,6.30
2020,04,24,05,28,6.30
2020,04,24,05,29,6.30
2020,04,24,05,30,6.30
2020,04,24,05,31,6.30
2020,04,24,05,32,6.30
2020,04,24,05,33,6.30
2020,04,24,05,34,6.30
2020,04,24,05,35,6.30
2020,04,24,05,36,6.30
2020,04,24,05,37,6.30
2020,04,24,05,38,6.30
2020,04,24,05,39,6.30
2020,04,24,05,40,6.30
2020,04,24,05,41,6.30
2020,04,24,05,42,6.20
2020,04,24,05,43,6.20
2020,04,24,05,44,6.20
2020,04,24,05,45,6.30
2020,04,24,05,46,6.30
2020,04,24,05,47,6.20
2020,04,24,05,48,6.30
2020,04,24,05,49,6.30
2020,04,24,05,50,6.30
2020,04,24,05,51,6.30
2020,04,24,05,52,6.20
2020,04,24,05,53,6.20
2020,04,24,05,54,6.20
2020,04,24,05,55,6.20
2020,04,24,05,56,6.30
2020,04,24,05,57,6.30
2020,04,24,05,58,6.30
2020,04,24,05,59,6.30
2020,04,24,06,00,6.30
2020,04,24,06,01,6.40
2020,04,24,06,02,6.50
2020,04,24,06,03,6.50
2020,04,24,06,04,6.60
2020,04,24,06,05,6.60
2020,04,24,06,06,6.60
2020,04,24,06,07,6.60
2020,04,24,06,08,6.60
2020,04,24,06,09,6.50
2020,04,24,06,10,6.40
2020,04,24,06,11,6.30
2020,04,24,06,12,6.30
2020,04,24,06,13,6.20
2020,04,24,06,14,6.20
2020,04,24,06,15,6.20
2020,04,24,06,16,6.30
2020,04,24,06,17,6.30
2020,04,24,06,18,6.40
2020,04,24,06,19,6.40
2020,04,24,06,20,6.50
2020,04,24,06,21,6.50
2020,04,24,06,22,6.60
2020,04,24,06,23,6.60
2020,04,24,06,24,6.60
2020,04,24,06,25,6.70
2020,04,24,06,26,6.70
2020,04,24,06,27,6.70
2020,04,24,06,28,6.60
2020,04,24,06,29,6.60
2020,04,24,06,30,6.50
2020,04,24,06,31,6.50
2020,04,24,06,32,6.40
2020,04,24,06,33,6.30
2020,04,24,06,34,6.30
2020,04,24,06,35,6.30
2020,04,24,06,36,6.20
2020,04,24,06,37,6.20
2020,04,24,06,38,6.20
2020,04,24,06,39,6.20
2020,04,24,06,40,6.20
2020,04,24,06,41,6.20
2020,04,24,06,42,6.20
2020,04,24,06,43,6.20
2020,04,24,06,44,6.20
2020,04,24,06,45,6.20
2020,04,24,06,46,6.30
2020,04,24,06,47,6.30
2020,04,24,06,48,6.30
2020,04,24,06,49,6.30
2020,04,24,06,50,6.30
2020,04,24,06,51,6.40
2020,04,24,06,52,6.40
2020,04,24,06,53,6.40
2020,04,24,06,54,6.40
2020,04,24,06,55,6.50
2020,04,24,06,56,6.50
2020,04,24,06,57,6.60
2020,04,24,06,58,6.60
2020,04,24,06,59,6.60
2020,04,24,07,00,6.60
2020,04,24,07,01,6.60
2020,04,24,07,02,6.60
2020,04,24,07,03,6.60
2020,04,24,07,04,6.60
2020,04,24,07,05,6.60
2020,04,24,07,06,6.60
2020,04,24,07,07,6.60
2020,04,24,07,08,6.60
2020,04,24,07,09,6.70
2020,04,24,07,10,6.70
2020,04,24,07,11,6.70
2020,04,24,07,12,6.70
2020,04,24,07,13,6.70
2020,04,24,07,14,6.70
2020,04,24,07,15,6.80
2020,04,24,07,16,6.80
2020,04,24,07,17,6.80
2020,04,24,07,18,6.80
2020,04,24,07,19,6.90
2020,04,24,07,20,6.90
2020,04,24,07,21,7.00
2020,04,24,07,22,7.00
2020,04,24,07,23,7.10
2020,04,24,07,24,7.10
2020,04,24,07,25,7.10
2020,04,24,07,26,7.10
2020,04,24,07,27,7.10
2020,04,24,07,28,7.10
2020,04,24,07,29,7.10
2020,04,24,07,30,7.10
2020,04,24,07,31,7.10
2020,04,24,07,32,7.10
2020,04,24,07,33,7.10
2020,04,24,07,34,7.10
2020,04,24,07,35,7.10
2020,04,24,07,36,7.10
2020,04,24,07,37,7.20
2020,04,24,07,38,7.20
2020,04,24,07,39,7.20
2020,04,24,07,40,7.30
2020,04,24,07,41,7.30
2020,04,24,07,42,7.40
2020,04,24,07,43,7.40
2020,04,24,07,44,7.50
2020,04,24,07,45,7.50
2020,04,24,07,46,7.60
2020,04,24,07,47,7.60
2020,04,24,07,48,7.70
2020,04,24,07,49,7.70
2020,04,24,07,50,7.70
2020,04,24,07,51,7.80
2020,04,24,07,52,7.80
2020,04,24,07,53,7.80
2020,04,24,07,54,7.90
2020,04,24,07,55,7.90
2020,04,24,07,56,7.90
2020,04,24,07,57,7.90
2020,04,24,07,58,8.00
2020,04,24,07,59,8.00
2020,04,24,08,00,7.90
2020,04,24,08,01,7.90
2020,04,24,08,02,7.90
2020,04,24,08,03,7.90
2020,04,24,08,04,7.90
2020,04,24,08,05,8.00
2020,04,24,08,06,8.00
2020,04,24,08,07,8.00
2020,04,24,08,08,8.10
2020,04,24,08,09,8.10
2020,04,24,08,10,8.10
2020,04,24,08,11,8.10
2020,04,24,08,12,8.10
2020,04,24,08,13,8.10
2020,04,24,08,14,8.20
2020,04,24,08,15,8.20
2020,04,24,08,16,8.20
2020,04,24,08,17,8.20
2020,04,24,08,18,8.20
2020,04,24,08,19,8.20
2020,04,24,08,20,8.20
2020,04,24,08,21,8.20
2020,04,24,08,22,8.20
2020,04,24,08,23,8.20
2020,04,24,08,24,8.30
2020,04,24,08,25,8.30
2020,04,24,08,26,8.30
2020,04,24,08,27,8.40
2020,04,24,08,28,8.40
2020,04,24,08,29,8.40
2020,04,24,08,30,8.50
2020,04,24,08,31,8.50
2020,04,24,08,32,8.50
2020,04,24,08,33,8.60
2020,04,24,08,34,8.60
2020,04,24,08,35,8.60
2020,04,24,08,36,8.70
2020,04,24,08,37,8.70
2020,04,24,08,38,8.70
2020,04,24,08,39,8.70
2020,04,24,08,40,8.70
2020,04,24,08,41,8.80
2020,04,24,08,42,8.80
2020,04,24,08,43,8.80
2020,04,24,08,44,8.80
2020,04,24,08,45,8.90
2020,04,24,08,46,8.90
2020,04,24,08,47,8.90
2020,04,24,08,48,8.90
2020,04,24,08,49,8.90
2020,04,24,08,50,8.90
2020,04,24,08,51,8.90
2020,04,24,08,52,8.90
2020,04,24,08,53,9.00
2020,04,24,08,54,9.00
2020,04,24,08,55,9.10
2020,04,24,08,56,9.10
2020,04,24,08,57,9.10
2020,04,24,08,58,9.10
2020,04,24,08,59,9.10
2020,04,24,09,00,9.10
2020,04,24,09,01,9.20
2020,04,24,09,02,9.20
2020,04,24,09,03,9.20
2020,04,24,09,04,9.20
2020,04,24,09,05,9.20
2020,04,24,09,06,9.20
2020,04,24,09,07,9.30
2020,04,24,09,08,9.30
2020,04,24,09,09,9.30
2020,04,24,09,10,9.30
2020,04,24,09,11,9.30
2020,04,24,09,12,9.40
2020,04,24,09,13,9.40
2020,04,24,09,14,9.40
2020,04,24,09,15,9.40
2020,04,24,09,16,9.40
2020,04,24,09,17,9.40
2020,04,24,09,18,9.50
2020,04,24,09,19,9.50
2020,04,24,09,20,9.50
2020,04,24,09,21,9.50
2020,04,24,09,22,9.50
2020,04,24,09,23,9.60
2020,04,24,09,24,9.60
2020,04,24,09,25,9.60
2020,04,24,09,26,9.60
2020,04,24,09,27,9.60
2020,04,24,09,28,9.60
2020,04,24,09,29,9.70
2020,04,24,09,30,9.70
2020,04,24,09,31,9.70
2020,04,24,09,32,9.70
2020,04,24,09,33,9.70
2020,04,24,09,34,9.80
2020,04,24,09,35,9.80
2020,04,24,09,36,9.80
2020,04,24,09,37,9.90
2020,04,24,09,38,9.90
2020,04,24,09,39,9.90
2020,04,24,09,40,9.90
2020,04,24,09,41,9.90
2020,04,24,09,42,10.00
2020,04,24,09,43,9.90
2020,04,24,09,44,10.00
2020,04,24,09,45,9.90
2020,04,24,09,46,9.90
2020,04,24,09,47,9.90
2020,04,24,09,48,9.90
2020,04,24,09,49,9.90
2020,04,24,09,50,9.90
2020,04,24,09,51,9.90
2020,04,24,09,52,9.90
2020,04,24,09,53,9.90
2020,04,24,09,54,10.00
2020,04,24,09,55,10.00
2020,04,24,09,56,10.10
2020,04,24,09,57,10.10
2020,04,24,09,58,10.10
2020,04,24,09,59,10.10
2020,04,24,10,00,10.10
2020,04,24,10,01,10.10
2020,04,24,10,02,10.10
2020,04,24,10,03,10.10
2020,04,24,10,04,10.10
2020,04,24,10,05,10.10
2020,04,24,10,06,10.10
2020,04,24,10,07,10.20
2020,04,24,10,08,10.20
2020,04,24,10,09,10.20
2020,04,24,10,10,10.20
2020,04,24,10,11,10.20
2020,04,24,10,12,10.20
2020,04,24,10,13,10.30
2020,04,24,10,14,10.30
2020,04,24,10,15,10.30
2020,04,24,10,16,10.30
2020,04,24,10,17,10.30
2020,04,24,10,18,10.30
2020,04,24,10,19,10.40
2020,04,24,10,20,10.40
2020,04,24,10,21,10.40
2020,04,24,10,22,10.40
2020,04,24,10,23,10.40
2020,04,24,10,24,10.40
2020,04,24,10,25,10.30
2020,04,24,10,26,10.30
2020,04,24,10,27,10.30
2020,04,24,10,28,10.30
2020,04,24,10,29,10.30
2020,04,24,10,30,10.30
2020,04,24,10,31,10.30
2020,04,24,10,32,10.30
2020,04,24,10,33,10.40
2020,04,24,10,34,10.40
2020,04,24,10,35,10.40
2020,04,24,10,36,10.40
2020,04,24,10,37,10.40
2020,04,24,10,38,10.40
2020,04,24,10,39,10.40
2020,04,24,10,40,10.40
2020,04,24,10,41,10.50
2020,04,24,10,42,10.60
2020,04,24,10,43,10.60
2020,04,24,10,44,10.60
2020,04,24,10,45,10.60
2020,04,24,10,46,10.60
2020,04,24,10,47,10.60
2020,04,24,10,48,10.60
2020,04,24,10,49,10.60
2020,04,24,10,50,10.60
2020,04,24,10,51,10.70
2020,04,24,10,52,10.70
2020,04,24,10,53,10.70
2020,04,24,10,54,10.60
2020,04,24,10,55,10.60
2020,04,24,10,56,10.60
2020,04,24,10,57,10.60
2020,04,24,10,58,10.60
2020,04,24,10,59,10.60
2020,04,24,11,00,10.60
2020,04,24,11,01,10.60
2020,04,24,11,02,10.70
2020,04,24,11,03,10.70
2020,04,24,11,04,10.70
2020,04,24,11,05,10.70
2020,04,24,11,06,10.80
2020,04,24,11,07,10.80
2020,04,24,11,08,10.80
2020,04,24,11,09,10.70
2020,04,24,11,10,10.70
2020,04,24,11,11,10.70
2020,04,24,11,12,10.70
2020,04,24,11,13,10.70
2020,04,24,11,14,10.70
2020,04,24,11,15,10.70
2020,04,24,11,16,10.70
2020,04,24,11,17,10.70
2020,04,24,11,18,10.70
2020,04,24,11,19,10.80
2020,04,24,11,20,10.80
2020,04,24,11,21,10.80
2020,04,24,11,22,10.80
2020,04,24,11,23,10.80
2020,04,24,11,24,10.90
2020,04,24,11,25,10.80
2020,04,24,11,26,10.80
2020,04,24,11,27,10.80
2020,04,24,11,28,10.80
2020,04,24,11,29,10.90
2020,04,24,11,30,10.90
2020,04,24,11,31,10.90
2020,04,24,11,32,10.90
2020,04,24,11,33,10.90
2020,04,24,11,34,10.90
2020,04,24,11,35,10.90
2020,04,24,11,36,10.90
2020,04,24,11,37,10.90
2020,04,24,11,38,10.90
2020,04,24,11,39,10.90
2020,04,24,11,40,10.80
2020,04,24,11,41,10.80
2020,04,24,11,42,10.90
2020,04,24,11,43,10.90
2020,04,24,11,44,10.90
2020,04,24,11,45,10.90
2020,04,24,11,46,10.90
2020,04,24,11,47,10.90
2020,04,24,11,48,11.00
2020,04,24,11,49,11.00
2020,04,24,11,50,11.00
2020,04,24,11,51,11.00
2020,04,24,11,52,11.00
2020,04,24,11,53,11.00
2020,04,24,11,54,11.10
2020,04,24,11,55,11.10
2020,04,24,11,56,11.10
2020,04,24,11,57,11.10
2020,04,24,11,58,11.10
2020,04,24,11,59,11.10
2020,04,24,12,00,11.10
2020,04,24,12,01,11.10
2020,04,24,12,02,11.10
2020,04,24,12,03,11.10
2020,04,24,12,04,11.10
2020,04,24,12,05,11.10
2020,04,24,12,06,11.10
2020,04,24,12,07,11.10
2020,04,24,12,08,11.10
2020,04,24,12,09,11.10
2020,04,24,12,10,11.10
2020,04,24,12,11,11.10
2020,04,24,12,12,11.10
2020,04,24,12,13,11.10
2020,04,24,12,14,11.10
2020,04,24,12,15,11.10
2020,04,24,12,16,11.10
2020,04,24,12,17,11.10
2020,04,24,12,18,11.20
2020,04,24,12,19,11.20
2020,04,24,12,20,11.30
2020,04,24,12,21,11.30
2020,04,24,12,22,11.40
2020,04,24,12,23,11.40
2020,04,24,12,24,11.40
2020,04,24,12,25,11.40
2020,04,24,12,26,11.40
2020,04,24,12,27,11.40
2020,04,24,12,28,11.40
2020,04,24,12,29,11.40
2020,04,24,12,30,11.40
2020,04,24,12,31,11.40
2020,04,24,12,32,11.30
2020,04,24,12,33,11.30
2020,04,24,12,34,11.30
2020,04,24,12,35,11.30
2020,04,24,12,36,11.30
2020,04,24,12,37,11.30
2020,04,24,12,38,11.30
2020,04,24,12,39,11.30
2020,04,24,12,40,11.40
2020,04,24,12,41,11.40
2020,04,24,12,42,11.50
2020,04,24,12,43,11.50
2020,04,24,12,44,11.50
2020,04,24,12,45,11.50
2020,04,24,12,46,11.50
2020,04,24,12,47,11.60
2020,04,24,12,48,11.70
2020,04,24,12,49,11.70
2020,04,24,12,50,11.80
2020,04,24,12,51,11.80
2020,04,24,12,52,11.90
2020,04,24,12,53,11.90
2020,04,24,12,54,12.00
2020,04,24,12,55,12.10
2020,04,24,12,56,12.10
2020,04,24,12,57,12.10
2020,04,24,12,58,12.10
2020,04,24,12,59,12.00
2020,04,24,13,00,11.90
2020,04,24,13,01,11.90
2020,04,24,13,02,12.00
2020,04,24,13,03,12.00
2020,04,24,13,04,11.90
2020,04,24,13,05,11.80
2020,04,24,13,06,11.90
2020,04,24,13,07,11.90
2020,04,24,13,08,12.00
2020,04,24,13,09,12.10
2020,04,24,13,10,12.20
2020,04,24,13,11,12.10
2020,04,24,13,12,12.00
2020,04,24,13,13,12.00
2020,04,24,13,14,12.00
2020,04,24,13,15,12.10
2020,04,24,13,16,12.10
2020,04,24,13,17,12.20
2020,04,24,13,18,12.20
2020,04,24,13,19,12.30
2020,04,24,13,20,12.30
2020,04,24,13,21,12.30
2020,04,24,13,22,12.20
2020,04,24,13,23,12.20
2020,04,24,13,24,12.20
2020,04,24,13,25,12.10
2020,04,24,13,26,12.10
2020,04,24,13,27,12.20
2020,04,24,13,28,12.20
2020,04,24,13,29,12.30
2020,04,24,13,30,12.40
2020,04,24,13,31,12.40
2020,04,24,13,32,12.40
2020,04,24,13,33,12.40
2020,04,24,13,34,12.40
2020,04,24,13,35,12.50
2020,04,24,13,36,12.50
2020,04,24,13,37,12.60
2020,04,24,13,38,12.70
2020,04,24,13,39,12.70
2020,04,24,13,40,12.70
2020,04,24,13,41,12.80
2020,04,24,13,42,12.80
2020,04,24,13,43,12.80
2020,04,24,13,44,12.70
2020,04,24,13,45,12.70
2020,04,24,13,46,12.70
2020,04,24,13,47,12.70
2020,04,24,13,48,12.80
2020,04,24,13,49,12.80
2020,04,24,13,50,12.90
2020,04,24,13,51,12.90
2020,04,24,13,52,13.00
2020,04,24,13,53,13.00
2020,04,24,13,54,13.10
2020,04,24,13,55,13.20
2020,04,24,13,56,13.10
2020,04,24,13,57,13.10
2020,04,24,13,58,13.10
2020,04,24,13,59,13.00
2020,04,24,14,00,13.10
2020,04,24,14,01,13.10
2020,04,24,14,02,13.20
2020,04,24,14,03,13.20
2020,04,24,14,04,13.20
2020,04,24,14,05,13.20
2020,04,24,14,06,13.20
2020,04,24,14,07,13.30
2020,04,24,14,08,13.40
2020,04,24,14,09,13.40
2020,04,24,14,10,13.40
2020,04,24,14,11,13.40
2020,04,24,14,12,13.30
2020,04,24,14,13,13.20
2020,04,24,14,14,13.10
2020,04,24,14,15,13.10
2020,04,24,14,16,13.20
2020,04,24,14,17,13.20
2020,04,24,14,18,13.30
2020,04,24,14,19,13.30
2020,04,24,14,20,13.30
2020,04,24,14,21,13.20
2020,04,24,14,22,13.20
2020,04,24,14,23,13.10
2020,04,24,14,24,13.10
2020,04,24,14,25,13.10
2020,04,24,14,26,13.10
2020,04,24,14,27,13.10
2020,04,24,14,28,13.10
2020,04,24,14,29,13.10
2020,04,24,14,30,13.10
2020,04,24,14,31,13.20
2020,04,24,14,32,13.20
2020,04,24,14,33,13.20
2020,04,24,14,34,13.20
2020,04,24,14,35,13.20
2020,04,24,14,36,13.20
2020,04,24,14,37,13.20
2020,04,24,14,38,13.20
2020,04,24,14,39,13.20
2020,04,24,14,40,13.20
2020,04,24,14,41,13.10
2020,04,24,14,42,13.10
2020,04,24,14,43,13.10
2020,04,24,14,44,13.20
2020,04,24,14,45,13.20
2020,04,24,14,46,13.20
2020,04,24,14,47,13.20
2020,04,24,14,48,13.30
2020,04,24,14,49,13.20
2020,04,24,14,50,13.20
2020,04,24,14,51,13.20
2020,04,24,14,52,13.20
2020,04,24,14,53,13.20
2020,04,24,14,54,13.20
2020,04,24,14,55,13.20
2020,04,24,14,56,13.30
2020,04,24,14,57,13.20
2020,04,24,14,58,13.20
2020,04,24,14,59,13.10
2020,04,24,15,00,13.10
2020,04,24,15,01,13.10
2020,04,24,15,02,13.10
2020,04,24,15,03,13.10
2020,04,24,15,04,13.10
2020,04,24,15,05,13.10
2020,04,24,15,06,13.20
2020,04,24,15,07,13.20
2020,04,24,15,08,13.30
2020,04,24,15,09,13.30
2020,04,24,15,10,13.30
2020,04,24,15,11,13.30
2020,04,24,15,12,13.30
2020,04,24,15,13,13.30
2020,04,24,15,14,13.30
2020,04,24,15,15,13.40
2020,04,24,15,16,13.40
2020,04,24,15,17,13.40
2020,04,24,15,18,13.40
2020,04,24,15,19,13.40
2020,04,24,15,20,13.40
2020,04,24,15,21,13.40
2020,04,24,15,22,13.40
2020,04,24,15,23,13.30
2020,04,24,15,24,13.30
2020,04,24,15,25,13.30
2020,04,24,15,26,13.30
2020,04,24,15,27,13.30
2020,04,24,15,28,13.30
2020,04,24,15,29,13.40
2020,04,24,15,30,13.30
2020,04,24,15,31,13.30
2020,04,24,15,32,13.30
2020,04,24,15,33,13.40
2020,04,24,15,34,13.30
2020,04,24,15,35,13.30
2020,04,24,15,36,13.30
2020,04,24,15,37,13.30
2020,04,24,15,38,13.40
2020,04,24,15,39,13.40
2020,04,24,15,40,13.40
2020,04,24,15,41,13.40
2020,04,24,15,42,13.40
2020,04,24,15,43,13.40
2020,04,24,15,44,13.40
2020,04,24,15,45,13.50
2020,04,24,15,46,13.50
2020,04,24,15,47,13.60
2020,04,24,15,48,13.70
2020,04,24,15,49,13.80
2020,04,24,15,50,13.90
2020,04,24,15,51,13.90
2020,04,24,15,52,13.90
2020,04,24,15,53,13.90
2020,04,24,15,54,13.90
2020,04,24,15,55,13.90
2020,04,24,15,56,13.80
2020,04,24,15,57,13.80
2020,04,24,15,58,13.70
2020,04,24,15,59,13.60
2020,04,24,16,00,13.50
2020,04,24,16,01,13.50
2020,04,24,16,02,13.40
2020,04,24,16,03,13.50
2020,04,24,16,04,13.50
2020,04,24,16,05,13.50
2020,04,24,16,06,13.50
2020,04,24,16,07,13.40
2020,04,24,16,08,13.40
2020,04,24,16,09,13.40
2020,04,24,16,10,13.40
2020,04,24,16,11,13.40
2020,04,24,16,12,13.40
2020,04,24,16,13,13.40
2020,04,24,16,14,13.40
2020,04,24,16,15,13.50
2020,04,24,16,16,13.50
2020,04,24,16,17,13.60
2020,04,24,16,18,13.70
2020,04,24,16,19,13.80
2020,04,24,16,20,13.90
2020,04,24,16,21,14.00
2020,04,24,16,22,14.00
2020,04,24,16,23,14.10
2020,04,24,16,24,14.20
2020,04,24,16,25,14.30
2020,04,24,16,26,14.30
2020,04,24,16,27,14.40
2020,04,24,16,28,14.40
2020,04,24,16,29,14.40
2020,04,24,16,30,14.40
2020,04,24,16,31,14.30
2020,04,24,16,32,14.00
2020,04,24,16,33,13.80
2020,04,24,16,34,13.60
2020,04,24,16,35,13.30
2020,04,24,16,36,13.10
2020,04,24,16,37,12.90
2020,04,24,16,38,12.90
2020,04,24,16,39,12.80
2020,04,24,16,40,12.70
2020,04,24,16,41,12.70
2020,04,24,16,42,12.60
2020,04,24,16,43,12.50
2020,04,24,16,44,12.50
2020,04,24,16,45,12.50
2020,04,24,16,46,12.50
2020,04,24,16,47,12.50
2020,04,24,16,48,12.40
2020,04,24,16,49,12.40
2020,04,24,16,50,12.40
2020,04,24,16,51,12.50
2020,04,24,16,52,12.50
2020,04,24,16,53,12.50
2020,04,24,16,54,12.50
2020,04,24,16,55,12.40
2020,04,24,16,56,12.40
2020,04,24,16,57,12.50
2020,04,24,16,58,12.50
2020,04,24,16,59,12.60
2020,04,24,17,00,12.70
2020,04,24,17,01,12.80
2020,04,24,17,02,12.90
2020,04,24,17,03,13.00
2020,04,24,17,04,13.10
2020,04,24,17,05,13.20
2020,04,24,17,06,13.30
2020,04,24,17,07,13.40
2020,04,24,17,08,13.40
2020,04,24,17,09,13.40
2020,04,24,17,10,13.50
2020,04,24,17,11,13.50
2020,04,24,17,12,13.50
2020,04,24,17,13,13.30
2020,04,24,17,14,12.90
2020,04,24,17,15,12.60
2020,04,24,17,16,12.30
2020,04,24,17,17,12.20
2020,04,24,17,18,12.00
2020,04,24,17,19,11.90
2020,04,24,17,20,11.80
2020,04,24,17,21,11.80
2020,04,24,17,22,11.70
2020,04,24,17,23,11.70
2020,04,24,17,24,11.70
2020,04,24,17,25,11.80
2020,04,24,17,26,11.80
2020,04,24,17,27,11.90
2020,04,24,17,28,11.90
2020,04,24,17,29,12.00
2020,04,24,17,30,12.10
2020,04,24,17,31,12.30
2020,04,24,17,32,12.50
2020,04,24,17,33,12.70
2020,04,24,17,34,12.90
2020,04,24,17,35,13.10
2020,04,24,17,36,13.30
2020,04,24,17,37,13.40
2020,04,24,17,38,13.60
2020,04,24,17,39,13.70
2020,04,24,17,40,13.70
2020,04,24,17,41,13.70
2020,04,24,17,42,13.50
2020,04,24,17,43,13.20
2020,04,24,17,44,13.00
2020,04,24,17,45,12.80